TimeEDT,TemperatureF,Dew PointF,Humidity,Sea Level PressureIn,VisibilityMPH,Wind Direction,Wind SpeedMPH,Gust SpeedMPH,PrecipitationIn,Events,Conditions,WindDirDegrees,DateUTC
12:15 AM,69.8,68.0,94,30.25,10.0,Calm,Calm,-,N/A,,Clear,0,2013-08-21 04:15:00
12:35 AM,69.8,69.8,100,30.24,7.0,Calm,Calm,-,N/A,,Clear,0,2013-08-21 04:35:00
12:55 AM,69.8,69.8,100,30.24,7.0,Calm,Calm,-,N/A,,Clear,0,2013-08-21 04:55:00
1:35 AM,69.8,69.8,100,30.23,10.0,Calm,Calm,-,N/A,,Mostly Cloudy,0,2013-08-21 05:35:00
2:15 AM,71.6,69.8,94,30.23,10.0,Calm,Calm,-,N/A,Rain,Light Rain,0,2013-08-21 06:15:00
2:55 AM,69.8,69.8,100,30.22,5.0,Calm,Calm,-,N/A,,Clear,0,2013-08-21 06:55:00
3:35 AM,69.8,69.8,100,30.22,5.0,Calm,Calm,-,N/A,,Clear,0,2013-08-21 07:35:00
3:55 AM,69.8,69.8,100,30.22,5.0,Calm,Calm,-,N/A,,Clear,0,2013-08-21 07:55:00
4:15 AM,69.8,68.0,94,30.22,5.0,Calm,Calm,-,N/A,,Clear,0,2013-08-21 08:15:00
4:35 AM,69.8,68.0,94,30.22,4.0,Calm,Calm,-,N/A,,Clear,0,2013-08-21 08:35:00
4:55 AM,69.8,68.0,94,30.22,3.0,Calm,Calm,-,N/A,,Clear,0,2013-08-21 08:55:00
5:15 AM,69.8,68.0,94,30.22,3.0,Calm,Calm,-,N/A,,Clear,0,2013-08-21 09:15:00
5:35 AM,69.8,68.0,94,30.22,3.0,Calm,Calm,-,N/A,,Scattered Clouds,0,2013-08-21 09:35:00
5:55 AM,69.8,68.0,94,30.23,4.0,Calm,Calm,-,N/A,,Mostly Cloudy,0,2013-08-21 09:55:00
6:15 AM,69.8,69.8,100,30.23,10.0,Calm,Calm,-,N/A,,Scattered Clouds,0,2013-08-21 10:15:00
6:35 AM,69.8,68.0,94,30.24,7.0,Calm,Calm,-,N/A,,Mostly Cloudy,0,2013-08-21 10:35:00
6:55 AM,69.8,68.0,94,30.25,7.0,Calm,Calm,-,N/A,,Overcast,0,2013-08-21 10:55:00
7:15 AM,69.8,69.8,100,30.25,7.0,Calm,Calm,-,N/A,,Drizzle,0,2013-08-21 11:15:00
7:35 AM,71.6,69.8,94,30.26,5.0,Calm,Calm,-,N/A,,Mostly Cloudy,0,2013-08-21 11:35:00
7:55 AM,71.6,71.6,100,30.26,3.0,Calm,Calm,-,N/A,,Overcast,0,2013-08-21 11:55:00
8:55 AM,73.4,71.6,94,30.27,7.0,Calm,Calm,-,N/A,,Overcast,0,2013-08-21 12:55:00
9:55 AM,78.8,73.4,83,30.27,10.0,Calm,Calm,-,N/A,,Mostly Cloudy,0,2013-08-21 13:55:00
10:20 AM,80.6,73.4,79,30.28,10.0,Calm,Calm,-,N/A,,Mostly Cloudy,0,2013-08-21 14:20:00
10:55 AM,80.6,71.6,74,30.28,10.0,Calm,Calm,-,N/A,,Mostly Cloudy,0,2013-08-21 14:55:00
12:55 PM,75.2,71.6,89,30.28,2.0,WSW,3.5,-,N/A,Rain,Heavy Rain,250,2013-08-21 16:55:00
1:55 PM,73.4,71.6,94,30.26,7.0,Calm,Calm,-,N/A,,Mostly Cloudy,0,2013-08-21 17:55:00
2:55 PM,77.0,73.4,89,30.24,10.0,Calm,Calm,-,N/A,,Mostly Cloudy,0,2013-08-21 18:55:00
3:55 PM,80.6,71.6,74,30.21,10.0,Calm,Calm,-,N/A,,Clear,0,2013-08-21 19:55:00
4:55 PM,80.6,71.6,74,30.19,10.0,West,3.5,-,N/A,,Clear,270,2013-08-21 20:55:00
5:55 PM,78.8,71.6,78,30.20,10.0,Calm,Calm,-,N/A,,Clear,0,2013-08-21 21:55:00
6:55 PM,78.8,71.6,78,30.18,10.0,Calm,Calm,-,N/A,,Clear,0,2013-08-21 22:55:00
7:55 PM,75.2,71.6,89,30.19,10.0,Calm,Calm,-,N/A,,Clear,0,2013-08-21 23:55:00
8:55 PM,71.6,71.6,100,30.18,10.0,Calm,Calm,-,N/A,,Clear,0,2013-08-22 00:55:00
9:15 PM,71.6,69.8,94,30.19,5.0,Calm,Calm,-,N/A,,Clear,0,2013-08-22 01:15:00
9:35 PM,71.6,69.8,94,30.21,10.0,Calm,Calm,-,N/A,,Scattered Clouds,0,2013-08-22 01:35:00
9:55 PM,71.6,69.8,94,30.22,7.0,Calm,Calm,-,N/A,,Mostly Cloudy,0,2013-08-22 01:55:00
10:15 PM,71.6,71.6,100,30.22,10.0,Calm,Calm,-,N/A,,Mostly Cloudy,0,2013-08-22 02:15:00
10:35 PM,71.6,71.6,100,30.22,10.0,Calm,Calm,-,N/A,,Scattered Clouds,0,2013-08-22 02:35:00
10:55 PM,71.6,69.8,94,30.22,7.0,Calm,Calm,-,N/A,,Clear,0,2013-08-22 02:55:00
11:15 PM,71.6,69.8,94,30.22,7.0,Calm,Calm,-,N/A,,Scattered Clouds,0,2013-08-22 03:15:00
11:35 PM,71.6,69.8,94,30.22,10.0,Calm,Calm,-,N/A,,Scattered Clouds,0,2013-08-22 03:35:00
11:55 PM,71.6,69.8,94,30.22,10.0,NW,3.5,-,N/A,,Clear,310,2013-08-22 03:55:00